Location: Dallas
(32.7830°N, 96.8000°W)
Time: 14:06:57
(UTC-06:00)

Tiangong 2 - Visible Passes

Search period start: 12 December 2017 00:00
Search period end: 22 December 2017 00:00
Orbit: 386 x 390 km, 42.8° (Epoch: 12 December)

Date Brightness Start Highest point End Pass type
(mag) Time Alt. Az. Time Alt. Az. Time Alt. Az.
12 Dec 2.2 05:55:19 29° SW 05:55:23 29° SW 05:58:12 10° SSE visible
13 Dec 4.4 04:59:59 12° SE 04:59:59 12° SE 05:00:14 10° SE visible
17 Dec 3.8 19:10:40 10° S 19:11:12 13° S 19:11:12 13° S visible
18 Dec 4.5 19:47:55 10° SW 19:48:10 12° SW 19:48:10 12° SW visible
19 Dec 1.8 18:49:44 10° SW 18:52:43 39° SE 18:52:45 39° SE visible
20 Dec 3.0 17:52:04 10° S 17:54:26 19° SE 17:56:47 10° E visible
20 Dec 3.3 19:27:59 10° WSW 19:29:35 25° W 19:29:35 25° W visible
21 Dec 1.0 18:29:25 10° WSW 18:32:35 89° SSE 18:34:02 29° ENE visible
